Accueil
METAR-TAF:

METAR-TAF

Aéroports :

Akulivik, Québec, Canada

latitude: 60-49N, longitude: 078-09W, altitude: 20 m

Observation

Le bulletin a été fait il y a 25 minutes, à 21:00 UTC
Vent 12 kt de nord-ouest
Température -26°C
Humidité 76%
Pression 1023 hPa
Visibilité: 16.1 km
Quelques nuages à une hauteur de 1500 ft
Quelques nuages à une hauteur de 20000 ft

METAR: CYKO 232100Z 32012KT 10SM FEW015 FEW200 M26/M29 A3020 RMK SC1CI1 SC TR CI TR SLP231

Heure: 16:25 (21:25 UTC)


TAF: absent

Observations et prévisions météorologiques de plus de 4000 aéroports (messages METAR et TAF).

Les stations disponibles sont représentées par des disques jaunes et rouges sur la carte.

Passer la souris dessus pour voir le nom de la station.

Cliquer dessus pour voir les observations et prévisions météorologiques.

Pour changer de carte: cliquez sur les boutons verts avec une croix noire pour zoomer, sur le bouton vert avec un tiret pour effectuer un zoom arrière, ou sur les flèches vertes pour les cartes adjacentes.


METAR-TAF: